Weather History for Palma de Mallorca, Spain

Change the Weather History Date:

Saturday, September 17, 2011

  Actual Average Record
Temperature  
Mean Temperature 74 °F -  
Max Temperature 84 °F 76 °F 88 °F (2014)
Min Temperature 65 °F 58 °F 55 °F (2003)
Cooling Degree Days 10    
Growing Degree Days 24 (Base 50)    
Moisture  
Dew Point 67 °F    
Average Humidity 77    
Maximum Humidity 94    
Minimum Humidity 55    
Precipitation  
Precipitation 0.00 in 0.07 in - ()
Sea Level Pressure  
Sea Level Pressure 30.00 in    
Wind  
Wind Speed 4 mph ()    
Max Wind Speed 14 mph    
Max Gust Speed -    
Visibility 6.8 miles    
Events      
Averages and records for this station are not official NWS values.
T = Trace of Precipitation, MM = Missing Value Source: Averaged Metar Reports

Daily Weather History Graph

Daily Weather History Graph

Search for Another Location

Airport:

Trip Planner

Search our weather history database for the weather conditions in past years. The results will help you decide how hot, cold, wet, or windy it might be!

Date:

Astronomy

Sep. 17, 2011 Rise Set
Actual Time 7:31 AM CEST 7:55 PM CEST
Civil Twilight 7:04 AM CEST 8:22 PM CEST
Nautical Twilight 6:32 AM CEST 8:53 PM CEST
Astronomical Twilight 6:00 AM CEST 9:26 PM CEST
Moon 10:16 PM CEST (9/17) 12:17 PM CEST (9/17)
Length of Visible Light 13h 17m
Length of Day
12h 23m
Waning Gibbous, 79% of the Moon is Illuminated
Sep 17
Waning Gibbous
Sep 20
Last Quarter
Sep 27
New
Oct 4
First Quarter
Oct 12
Full

Hourly Weather History & Observations

Time (CEST) Temp. Heat Index Dew Point Humidity Pressure Visibility Wind Dir Wind Speed Gust Speed Precip Events Conditions
12:00 AM 69.8 °F - 66.2 °F 88% 30.04 in 6.2 mi ENE 3.5 mph - N/A   Partly Cloudy
12:30 AM 69.8 °F - 66.2 °F 88% 30.04 in 6.2 mi ENE 3.5 mph - N/A   Partly Cloudy
1:00 AM 69.8 °F - 64.4 °F 83% 30.04 in 6.2 mi NE 3.5 mph - N/A   Partly Cloudy
1:30 AM 68.0 °F - 64.4 °F 88% 30.04 in 6.2 mi ENE 4.6 mph - N/A   Partly Cloudy
2:00 AM 68 °F - 65 °F 87% 30.05 in 9 mi NE 1.2 mph - -   Scattered Clouds
2:00 AM 68.0 °F - 66.2 °F 94% 30.04 in 6.2 mi Variable 2.3 mph - N/A   Partly Cloudy
2:30 AM 68.0 °F - 64.4 °F 88% 30.04 in 6.2 mi Variable 1.2 mph - N/A   Partly Cloudy
3:00 AM 68.0 °F - 66.2 °F 94% 30.04 in 6.2 mi Variable 1.2 mph - N/A   Partly Cloudy
3:30 AM 68.0 °F - 66.2 °F 94% 30.01 in 6.2 mi NNE 2.3 mph - N/A   Partly Cloudy
4:00 AM 66.2 °F - 64.4 °F 94% 30.04 in 6.2 mi NE 2.3 mph - N/A   Partly Cloudy
4:30 AM 66.2 °F - 64.4 °F 94% 30.01 in 6.2 mi NNE 2.3 mph - N/A   Partly Cloudy
5:00 AM 66.2 °F - 64.4 °F 94% 30.01 in 6.2 mi Variable 1.2 mph - N/A   Partly Cloudy
5:30 AM 66.2 °F - 64.4 °F 94% 30.01 in 6.2 mi NE 3.5 mph - N/A   Partly Cloudy
6:00 AM 66.2 °F - 64.4 °F 94% 30.01 in 6.2 mi NE 3.5 mph - N/A   Partly Cloudy
6:30 AM 64.4 °F - 62.6 °F 94% 30.01 in 6.2 mi NE 4.6 mph - N/A   Partly Cloudy
7:00 AM 66.2 °F - 64.4 °F 94% 30.01 in 6.2 mi NE 3.5 mph - N/A   Partly Cloudy
7:30 AM 66.2 °F - 64.4 °F 94% 30.01 in - North 3.5 mph - N/A   Clear
8:00 AM 66 °F - 65 °F 94% 30.02 in 19 mi NNW 2.3 mph - -   Scattered Clouds
8:00 AM 66.2 °F - 64.4 °F 94% 30.01 in 6.2 mi North 4.6 mph - N/A   Partly Cloudy
8:30 AM 68.0 °F - 66.2 °F 94% 30.01 in 6.2 mi Variable 2.3 mph - N/A   Partly Cloudy
9:00 AM 69.8 °F - 68.0 °F 94% 30.01 in 6.2 mi Variable 2.3 mph - N/A   Partly Cloudy
9:30 AM 73.4 °F - 68.0 °F 83% 30.04 in 6.2 mi Variable 1.2 mph - N/A   Partly Cloudy
10:00 AM 77.0 °F - 68.0 °F 74% 30.04 in 6.2 mi Variable 1.2 mph - N/A   Partly Cloudy
10:30 AM 78.8 °F - 68.0 °F 69% 30.04 in 6.2 mi Variable 2.3 mph - N/A   Partly Cloudy
11:00 AM 80.6 °F 83.2 °F 68.0 °F 65% 30.04 in 6.2 mi ENE 4.6 mph - N/A   Partly Cloudy
11:30 AM 82.4 °F 84.6 °F 66.2 °F 58% 30.04 in 6.2 mi Variable 3.5 mph - N/A   Partly Cloudy
12:00 PM 84.2 °F 86.6 °F 66.2 °F 55% 30.04 in 6.2 mi South 4.6 mph - N/A   Partly Cloudy
12:30 PM 82.4 °F 85.4 °F 68.0 °F 62% 30.04 in 6.2 mi SW 11.5 mph - N/A   Partly Cloudy
1:00 PM 82.4 °F 84.6 °F 66.2 °F 58% 30.01 in 6.2 mi SW 12.7 mph - N/A   Partly Cloudy
1:30 PM 82.4 °F 84.6 °F 66.2 °F 58% 30.01 in 6.2 mi SW 13.8 mph - N/A   Partly Cloudy
2:00 PM 82.4 °F 85.4 °F 68.0 °F 62% 30.01 in 6.2 mi SW 12.7 mph - N/A   Partly Cloudy
2:30 PM 82.4 °F 85.4 °F 68.0 °F 62% 30.01 in 6.2 mi SW 13.8 mph - N/A   Partly Cloudy
3:00 PM 82.4 °F 85.4 °F 68.0 °F 62% 30.01 in 6.2 mi SW 12.7 mph - N/A   Partly Cloudy
3:30 PM 82.4 °F 85.4 °F 68.0 °F 62% 29.98 in 6.2 mi SW 12.7 mph - N/A   Partly Cloudy
4:00 PM 82.4 °F 85.4 °F 68.0 °F 62% 29.98 in 6.2 mi SSW 12.7 mph - N/A   Partly Cloudy
4:30 PM 82.4 °F 85.4 °F 68.0 °F 62% 29.98 in 6.2 mi SW 11.5 mph - N/A   Partly Cloudy
5:00 PM 82.4 °F 85.4 °F 68.0 °F 62% 29.95 in 6.2 mi SW 10.4 mph - N/A   Partly Cloudy
5:30 PM 80.6 °F 83.2 °F 68.0 °F 65% 29.95 in 6.2 mi SW 9.2 mph - N/A   Partly Cloudy
6:00 PM 80.6 °F 83.2 °F 68.0 °F 65% 29.95 in 6.2 mi SW 10.4 mph - N/A   Partly Cloudy
6:30 PM 80.6 °F 83.2 °F 68.0 °F 65% 29.95 in 6.2 mi SW 9.2 mph - N/A   Partly Cloudy
7:00 PM 80.6 °F 83.2 °F 68.0 °F 65% 29.95 in 6.2 mi SSW 9.2 mph - N/A   Partly Cloudy
7:30 PM 78.8 °F - 68.0 °F 69% 29.95 in 6.2 mi SSW 6.9 mph - N/A   Partly Cloudy
8:00 PM 78 °F - 69 °F 66% 29.94 in 19 mi SW 8.1 mph - -   Scattered Clouds
8:00 PM 78.8 °F - 68.0 °F 69% 29.92 in 6.2 mi SSW 5.8 mph - N/A   Partly Cloudy
8:30 PM 77.0 °F - 68.0 °F 74% 29.95 in 6.2 mi SSW 2.3 mph - N/A   Partly Cloudy
9:00 PM 78.8 °F - 69.8 °F 74% 29.92 in 6.2 mi South 2.3 mph - N/A   Partly Cloudy
9:30 PM 77.0 °F - 69.8 °F 78% 29.92 in 6.2 mi SSE 2.3 mph - N/A   Partly Cloudy
10:00 PM 77.0 °F - 68.0 °F 74% 29.95 in 6.2 mi SSE 2.3 mph - N/A   Partly Cloudy
10:30 PM 78.8 °F - 69.8 °F 74% 29.95 in 6.2 mi SSE 3.5 mph - N/A   Scattered Clouds
11:00 PM 77.0 °F - 68.0 °F 74% 29.92 in 6.2 mi SE 1.2 mph - N/A   Scattered Clouds
11:30 PM 73.4 °F - 68.0 °F 83% 29.92 in 6.2 mi East 3.5 mph - N/A   Scattered Clouds